[[{"header":{"parameterUnit":"m.s-1","parameterCategory":1,"la1":30.2991,"la2":30.254,"lo1":-89.0895,"lo2":-89.0444,"dy":0.0017,"dx":0.0017,"nx":28,"ny":28,"refTime":"2025-09-06T03:00:00:Z","depth":0,"parameterNumber":2,"parameterNumberName":"U-component_of_WINDS"},"data":[0,0,0,0,0,0,0,0,0,0,0,0,0,0,0,0,0,0,0,0,0,0,0,0,0,0,0,0,0,0,0,0,0,0,0,0,0,0,0,0,0,0,0,0,0,0,0,0,0,0,0,0,0,0,0,0,0,0,-1.3378,-1.3378,0,-1.3402,-1.3402,-1.3402,-1.3355,-1.3354,-1.3352,-1.3351,-1.3376,-1.3378,-1.338,0,0,0,0,0,0,0,0,0,0,0,0,0,-1.3291,-1.3293,-1.3378,-1.3378,-1.3378,-1.3402,-1.3402,-1.3402,-1.3355,-1.3353,-1.3352,-1.335,-1.3375,-1.3378,-1.338,0,0,0,0,0,0,0,0,0,0,0,0,0,-1.3324,-1.3294,-1.3378,-1.3358,-1.3356,-1.3401,-1.3402,-1.3402,-1.3356,-1.3353,-1.3351,-1.3349,-1.3375,-1.3378,-1.3381,-1.3447,0,0,-1.339,-1.3392,0,0,0,0,0,0,0,0,-1.3322,-1.3327,-1.336,-1.3359,-1.3358,-1.3373,-1.3381,-1.3417,-1.3356,-1.3356,-1.335,-1.3348,-1.3377,-1.338,-1.3389,-1.3448,-1.3449,-1.3391,-1.3393,-1.3394,-1.3395,0,0,0,0,0,0,0,-1.332,-1.3325,-1.3387,-1.3361,-1.3359,-1.3347,-1.3349,-1.3387,-1.3379,-1.3356,-1.3352,-1.3356,-1.3376,-1.3386,-1.339,-1.345,-1.3391,-1.3394,-1.3395,-1.3397,-1.3563,-1.3565,0,0,0,0,0,0,-1.332,-1.3324,-1.3386,-1.3388,-1.3334,-1.3351,-1.3353,-1.337,-1.3379,-1.3378,-1.3358,-1.3354,-1.3382,-1.3386,-1.339,-1.3469,-1.3394,-1.3397,-1.3399,-1.356,-1.3564,-1.3566,0,0,0,0,0,0,-1.3318,-1.3326,-1.3385,-1.3355,-1.3362,-1.3355,-1.3375,-1.3372,-1.3383,-1.338,-1.3379,-1.337,-1.338,-1.3386,-1.3433,-1.3469,-1.3398,-1.3401,-1.3558,-1.3561,-1.3565,-1.3626,0,0,0,0,0,0,-1.3316,-1.3326,-1.3351,-1.3356,-1.3363,-1.3428,-1.3377,-1.3374,-1.3388,-1.3383,-1.3392,-1.3391,-1.3379,-1.3429,-1.3436,-1.3472,-1.3404,-1.3554,-1.3559,-1.3564,-1.3621,-1.3631,-1.364,0,0,0,0,0,-1.3313,-1.3367,-1.3352,-1.336,-1.3395,-1.343,-1.3435,-1.342,-1.3391,-1.3417,-1.3415,-1.339,-1.3463,-1.3434,-1.3442,-1.3479,-1.3552,-1.3558,-1.3563,-1.3616,-1.3629,-1.364,0,0,0,0,0,0,-1.3368,-1.3368,-1.3351,-1.3409,-1.342,-1.3422,-1.3454,-1.3434,-1.3454,-1.3448,-1.3429,-1.3431,-1.3482,-1.3485,-1.3452,-1.3543,-1.3503,-1.351,-1.354,-1.3552,-1.3562,-1.3561,-1.3406,0,0,0,0,0,-1.3386,-1.3415,-1.3413,-1.3464,-1.347,-1.3461,-1.3476,-1.3463,-1.3474,-1.3479,-1.348,-1.3492,-1.3517,-1.3535,-1.3558,-1.362,-1.3621,-1.3649,-1.3659,-1.3667,-1.3675,-1.3708,-1.372,-1.3585,-1.3585,-1.3585,0,0,-1.3426,-1.3429,-1.3448,-1.3475,-1.3482,-1.3512,-1.3466,-1.35,-1.3522,-1.3484,-1.3529,-1.353,-1.3542,-1.3596,-1.3621,-1.3601,-1.3712,-1.3674,-1.3681,-1.3684,-1.3715,-1.3728,-1.3739,-1.3589,-1.3588,-1.3587,0,0,-1.3513,-1.3518,-1.3561,-1.3568,-1.3579,-1.3572,-1.3583,-1.3588,-1.3587,-1.3631,-1.3603,-1.3629,-1.3673,-1.3683,-1.3693,-1.3781,-1.376,-1.3789,-1.3841,-1.3874,-1.3884,-1.3894,-1.3926,-1.3938,-1.3796,-1.3796,-1.3796,0,-1.3561,-1.3605,-1.3586,-1.3621,-1.3634,-1.36,-1.3643,-1.3652,-1.367,-1.3679,-1.3656,-1.371,-1.3715,-1.3772,-1.3793,-1.3802,-1.3814,-1.3789,-1.3884,-1.3893,-1.3902,-1.3933,-1.3945,-1.38,-1.3799,-1.3799,-1.3799,0,-1.3663,-1.3694,-1.3727,-1.3745,-1.3761,-1.38,-1.3787,-1.3806,-1.3791,-1.3786,-1.3832,-1.3836,-1.386,-1.3872,-1.3858,-1.3926,-1.3913,-1.3887,-1.3847,-1.3919,-1.3947,-1.3959,-1.3805,-1.3804,-1.3803,-1.3802,0,0,-1.3788,-1.3793,-1.3806,-1.3813,-1.3822,-1.3845,-1.3882,-1.3905,-1.3921,-1.3934,-1.3965,-1.4002,-1.3978,-1.3989,-1.3976,-1.4004,-1.4074,-1.3975,-1.3974,-1.3994,-1.4151,-1.4171,-1.4185,-1.4059,-1.4061,-1.4063,-1.415,0,-1.3876,-1.394,-1.3923,-1.3987,-1.4016,-1.3982,-1.4014,-1.4023,-1.4019,-1.4042,-1.4038,-1.4065,-1.403,-1.4037,-1.4063,-1.4061,-1.4106,-1.4054,-1.4089,-1.409,-1.4089,-1.42,-1.4223,-1.4305,-1.4161,-1.4163,-1.4164,0,-1.3987,-1.4003,-1.407,-1.4073,-1.4084,-1.4114,-1.4132,-1.4155,-1.4163,-1.4158,-1.4171,-1.4151,-1.4187,-1.4145,-1.4195,-1.416,-1.4172,-1.4173,-1.4176,-1.418,-1.4133,-1.4209,-1.433,-1.4344,-1.4181,-1.418,-1.4179,0,-1.4073,-1.4112,-1.4157,-1.4164,-1.4168,-1.4189,-1.4192,-1.4198,-1.4212,-1.4228,-1.4237,-1.4257,-1.4268,-1.4284,-1.427,-1.424,-1.4323,-1.4279,-1.432,-1.4321,-1.4342,-1.4341,-1.4468,-1.4347,-1.4347,-1.4346,-1.4346,0,-1.4174,-1.4217,-1.4195,-1.4224,-1.427,-1.4249,-1.4296,-1.4294,-1.43,-1.4327,-1.4298,-1.4324,-1.4303,-1.4327,-1.4316,-1.436,-1.4365,-1.4362,-1.4359,-1.4366,-1.4367,-1.4376,-1.4371,-1.435,-1.4349,-1.4348,-1.4348,0,-1.4279,-1.4267,-1.4314,-1.4313,-1.4313,-1.4348,-1.4347,-1.4373,-1.4366,-1.44,-1.4407,-1.4396,-1.4423,-1.441,-1.4438,-1.443,-1.4487,-1.4475,-1.4484,-1.4482,-1.4525,-1.4522,-1.4665,-1.4683,-1.4548,-1.4549,-1.455,0,-1.4346,-1.4378,-1.4379,-1.4395,-1.44,-1.4425,-1.4439,-1.4419,-1.4435,-1.4446,-1.447,-1.4494,-1.4512,-1.4556,-1.4551,-1.4572,-1.4562,-1.461,-1.4565,-1.4571,-1.4564,-1.4563,-1.4567,-1.462,-1.4622,-1.4623,-1.4624,0,-1.4465,-1.4456,-1.4477,-1.4496,-1.4513,-1.4527,-1.4538,-1.4553,-1.4533,-1.4551,-1.4578,-1.4592,-1.4619,-1.4644,-1.4662,-1.4664,-1.4642,-1.4638,-1.4649,-1.4657,-1.4662,-1.4661,-1.4511,-1.4636,-1.4634,-1.4634,-1.4633,-1.4632,-1.4554,-1.458,-1.4586,-1.461,-1.4616,-1.4626,-1.465,-1.4645,-1.4667,-1.4688,-1.4674,-1.4706,-1.4712,-1.4733,-1.4738,-1.4762,-1.4743,-1.4759,-1.4763,-1.4768,-1.4774,-1.4656,-1.4765,-1.4765,-1.4765,-1.4764,-1.4764,0,-1.4673,-1.4674,-1.4696,-1.4712,-1.4731,-1.4706,-1.4716,-1.4734,-1.4762,-1.4769,-1.4787,-1.4817,-1.484,-1.4835,-1.4856,-1.4876,-1.4866,-1.4883,-1.4882,-1.4883,-1.479,-1.4779,-1.489,-1.489,-1.489,-1.489,-1.489,-1.489,-1.4737,-1.4781,-1.4773,-1.4819,-1.4819,-1.485,-1.4858,-1.4868,-1.4873,-1.4908,-1.4927,-1.4923,-1.4926,-1.4946,-1.4966,-1.4963,-1.4973,-1.4994,-1.4988,-1.4902,-1.489,-1.4878,-1.4867,-1.4996,-1.4996,-1.5079,-1.508,-1.5081]},{"header":{"parameterUnit":"m.s-1","parameterCategory":1,"la1":30.2991,"la2":30.254,"lo1":-89.0895,"lo2":-89.0444,"dy":0.0017,"dx":0.0017,"nx":28,"ny":28,"refTime":"2025-09-06T03:00:00:Z","depth":0,"parameterNumber":3,"parameterNumberName":"V-component_of_WINDS"},"data":[0,0,0,0,0,0,0,0,0,0,0,0,0,0,0,0,0,0,0,0,0,0,0,0,0,0,0,0,0,0,0,0,0,0,0,0,0,0,0,0,0,0,0,0,0,0,0,0,0,0,0,0,0,0,0,0,0,0,-6.1791,-6.1792,0,-6.1836,-6.1836,-6.1837,-6.1737,-6.1734,-6.1731,-6.1728,-6.1769,-6.1773,-6.1777,0,0,0,0,0,0,0,0,0,0,0,0,0,-6.1615,-6.1619,-6.1791,-6.1792,-6.1792,-6.1836,-6.1836,-6.1837,-6.1738,-6.1734,-6.173,-6.1727,-6.1767,-6.1772,-6.1777,0,0,0,0,0,0,0,0,0,0,0,0,0,-6.1679,-6.162,-6.1791,-6.1748,-6.1745,-6.1836,-6.1836,-6.1837,-6.1739,-6.1734,-6.1729,-6.1725,-6.1766,-6.1772,-6.1778,-6.191,0,0,-6.1796,-6.1799,0,0,0,0,0,0,0,0,-6.1675,-6.1685,-6.1754,-6.1752,-6.1748,-6.1776,-6.1789,-6.1861,-6.174,-6.1741,-6.1728,-6.1722,-6.1775,-6.178,-6.1798,-6.1912,-6.1914,-6.1797,-6.18,-6.1803,-6.1805,0,0,0,0,0,0,0,-6.1671,-6.1683,-6.1809,-6.1755,-6.1751,-6.1725,-6.1729,-6.1802,-6.1784,-6.174,-6.1733,-6.174,-6.1772,-6.1793,-6.1799,-6.1915,-6.1797,-6.1802,-6.1806,-6.1808,-6.2139,-6.2143,0,0,0,0,0,0,-6.1673,-6.168,-6.1807,-6.181,-6.1699,-6.1732,-6.1736,-6.1772,-6.1783,-6.178,-6.1744,-6.1735,-6.1785,-6.1792,-6.18,-6.1955,-6.1803,-6.1809,-6.1812,-6.2134,-6.214,-6.2145,0,0,0,0,0,0,-6.167,-6.1685,-6.1805,-6.1743,-6.1756,-6.174,-6.1781,-6.1775,-6.1796,-6.1786,-6.1781,-6.1769,-6.1781,-6.1791,-6.1884,-6.1955,-6.1811,-6.1817,-6.2127,-6.2135,-6.2143,-6.2268,0,0,0,0,0,0,-6.1665,-6.1685,-6.1736,-6.1745,-6.176,-6.1891,-6.1785,-6.178,-6.1807,-6.1796,-6.1808,-6.1805,-6.1778,-6.1875,-6.189,-6.1961,-6.1822,-6.2121,-6.2131,-6.214,-6.2258,-6.228,-6.2298,0,0,0,0,0,-6.1659,-6.1769,-6.1739,-6.1755,-6.1825,-6.1895,-6.1904,-6.1872,-6.1813,-6.1864,-6.1858,-6.1805,-6.1945,-6.1886,-6.1901,-6.1975,-6.2116,-6.2128,-6.2139,-6.2249,-6.2275,-6.2298,0,0,0,0,0,0,-6.1767,-6.1769,-6.1737,-6.1853,-6.1875,-6.1878,-6.1941,-6.1901,-6.1938,-6.1926,-6.1883,-6.1887,-6.1987,-6.199,-6.1924,-6.2104,-6.2021,-6.2036,-6.2099,-6.2124,-6.2143,-6.214,-6.1827,0,0,0,0,0,-6.1805,-6.1864,-6.1862,-6.1965,-6.1977,-6.1958,-6.1987,-6.1961,-6.1981,-6.1989,-6.1989,-6.201,-6.2058,-6.2091,-6.2135,-6.2258,-6.2258,-6.2316,-6.2336,-6.2353,-6.2367,-6.2431,-6.2457,-6.2183,-6.2183,-6.2183,0,0,-6.1883,-6.1891,-6.1931,-6.1987,-6.2,-6.2061,-6.1966,-6.2034,-6.2078,-6.1999,-6.2087,-6.2088,-6.2107,-6.2216,-6.2263,-6.2221,-6.2442,-6.2368,-6.2381,-6.2386,-6.2446,-6.2471,-6.2494,-6.2191,-6.219,-6.2188,0,0,-6.2056,-6.2069,-6.2156,-6.2172,-6.2195,-6.2181,-6.2202,-6.2212,-6.221,-6.2298,-6.224,-6.229,-6.2375,-6.2391,-6.241,-6.2589,-6.2542,-6.2605,-6.271,-6.2773,-6.2795,-6.2814,-6.2877,-6.29,-6.2618,-6.2619,-6.2619,0,-6.2149,-6.224,-6.2205,-6.2278,-6.2303,-6.2236,-6.2323,-6.234,-6.2375,-6.2393,-6.2346,-6.2451,-6.2459,-6.257,-6.2614,-6.2632,-6.2654,-6.2603,-6.2795,-6.2813,-6.283,-6.289,-6.2914,-6.2626,-6.2625,-6.2624,-6.2624,0,-6.2353,-6.2417,-6.2484,-6.2522,-6.2555,-6.2634,-6.261,-6.2647,-6.2618,-6.2609,-6.2698,-6.2706,-6.2751,-6.2775,-6.2746,-6.2882,-6.2855,-6.2802,-6.2717,-6.2865,-6.292,-6.2943,-6.2637,-6.2634,-6.2632,-6.263,0,0,-6.2596,-6.2614,-6.2639,-6.2655,-6.2675,-6.2723,-6.2798,-6.2843,-6.2876,-6.2902,-6.2963,-6.3037,-6.2988,-6.301,-6.2982,-6.3038,-6.3179,-6.2978,-6.2978,-6.3015,-6.3328,-6.3368,-6.3395,-6.3148,-6.3152,-6.3155,-6.3326,0,-6.2767,-6.2899,-6.287,-6.2999,-6.3056,-6.2993,-6.3059,-6.3077,-6.3071,-6.3117,-6.3108,-6.3161,-6.3093,-6.3106,-6.3158,-6.3151,-6.3241,-6.3138,-6.3203,-6.3206,-6.32,-6.3424,-6.3466,-6.3627,-6.3348,-6.3351,-6.3354,0,-6.2984,-6.3021,-6.3157,-6.3167,-6.319,-6.325,-6.3288,-6.3334,-6.3353,-6.3344,-6.3369,-6.333,-6.3403,-6.3318,-6.3417,-6.3348,-6.3373,-6.3373,-6.3379,-6.3383,-6.3289,-6.3435,-6.3678,-6.3702,-6.3388,-6.3385,-6.3383,0,-6.3148,-6.323,-6.3322,-6.3338,-6.3352,-6.3396,-6.3403,-6.3418,-6.3447,-6.348,-6.3498,-6.3538,-6.3561,-6.3592,-6.3565,-6.3506,-6.3668,-6.3581,-6.3662,-6.3663,-6.3699,-6.3697,-6.395,-6.3716,-6.3715,-6.3715,-6.3714,0,-6.3342,-6.3427,-6.3396,-6.3452,-6.3545,-6.351,-6.3602,-6.3602,-6.3616,-6.367,-6.3617,-6.3668,-6.3629,-6.3677,-6.3656,-6.3741,-6.3751,-6.3745,-6.3739,-6.375,-6.3751,-6.3765,-6.3754,-6.3721,-6.372,-6.3718,-6.3717,0,-6.354,-6.3522,-6.3618,-6.3624,-6.3628,-6.3696,-6.3701,-6.3752,-6.3741,-6.381,-6.3824,-6.3807,-6.3861,-6.3837,-6.3892,-6.3878,-6.3988,-6.3966,-6.3982,-6.3976,-6.4058,-6.4051,-6.4329,-6.4363,-6.4108,-6.411,-6.4112,0,-6.3665,-6.3729,-6.3743,-6.3776,-6.3788,-6.3842,-6.3872,-6.3839,-6.3871,-6.3898,-6.3946,-6.3995,-6.4033,-6.412,-6.4112,-6.4154,-6.4133,-6.4227,-6.4139,-6.4148,-6.4134,-6.413,-6.4136,-6.4245,-6.4248,-6.425,-6.4252,0,-6.3888,-6.3877,-6.3922,-6.3965,-6.4002,-6.4034,-6.406,-6.409,-6.4058,-6.4097,-6.4152,-6.4182,-6.4239,-6.4288,-6.4325,-6.433,-6.4286,-6.4281,-6.4301,-6.4314,-6.432,-6.4318,-6.403,-6.4274,-6.4272,-6.427,-6.4269,-6.4268,-6.4053,-6.4107,-6.4126,-6.4178,-6.4195,-6.4221,-6.427,-6.4266,-6.4312,-6.4357,-6.4334,-6.4398,-6.4414,-6.446,-6.4471,-6.4519,-6.4482,-6.4512,-6.452,-6.4528,-6.4539,-6.4313,-6.4526,-6.4525,-6.4525,-6.4524,-6.4524,0,-6.4274,-6.4283,-6.4331,-6.4371,-6.4412,-6.4369,-6.4396,-6.4432,-6.449,-6.4509,-6.4548,-6.461,-6.4658,-6.4653,-6.4696,-6.4735,-6.4716,-6.4748,-6.4744,-6.4746,-6.457,-6.4548,-6.4763,-6.4763,-6.4763,-6.4763,-6.4763,-6.4762,-6.4393,-6.4483,-6.4473,-6.457,-6.4577,-6.4641,-6.466,-6.4683,-6.4699,-6.4772,-6.4812,-6.4809,-6.4819,-6.4862,-6.4903,-6.49,-6.4918,-6.4957,-6.4947,-6.4782,-6.4759,-6.4736,-6.4715,-6.4962,-6.4962,-6.5119,-6.5121,-6.5122]}]]